When you browse on this site, cookies collect data to enhance your experience and personalize the content and advertising you see.
Visit our Privacy Policy to learn more. By continuing to use the site, you agree to this use of cookies and data.
  • In Romania
  • List of Countries
  • For 7 days
  • Water Temperature
  • Satellite Maps
  • Weather Map
  • Weather Widgets
  • user-avatar
    Login

    Hourly Weather Loganiha

    Today, 26 April, Friday

    Time Temperature Precipitation Wind Pressure Humidity
    00:00 +10°C° 0 mm 2 mps 752 mmHg 68%
    01:00 +9°C° 0 mm 2 mps 752 mmHg 71%
    02:00 +9°C° 0 mm 2 mps 753 mmHg 74%
    03:00 +8°C° 0 mm 2 mps 753 mmHg 75%
    04:00 +8°C° 0 mm 2 mps 753 mmHg 77%
    05:00 +8°C° 0 mm 2 mps 753 mmHg 78%
    06:00 +9°C° 0 mm 2 mps 752 mmHg 72%
    07:00 +12°C° 0 mm 2 mps 752 mmHg 66%
    08:00 +14°C° 0 mm 2 mps 752 mmHg 60%
    09:00 +16°C° 0 mm 2 mps 752 mmHg 55%
    10:00 +17°C° 0 mm 2 mps 752 mmHg 50%
    11:00 +19°C° 0 mm 2 mps 752 mmHg 45%
    12:00 +20°C° 0 mm 2 mps 751 mmHg 42%
    13:00 +21°C° 0 mm 1 mps 751 mmHg 40%
    14:00 +22°C° 0 mm 1 mps 751 mmHg 38%
    15:00 +22°C° 0 mm 1 mps 750 mmHg 39%
    16:00 +22°C° 0 mm 1 mps 750 mmHg 40%
    17:00 +21°C° 0 mm 1 mps 749 mmHg 41%
    18:00 +19°C° 0 mm 1 mps 749 mmHg 48%
    19:00 +16°C° 0 mm 1 mps 749 mmHg 54%
    20:00 +14°C° 0 mm 1 mps 748 mmHg 61%
    21:00 +14°C° 0.3 mm 1 mps 748 mmHg 65%
    22:00 +13°C° 0.3 mm 1 mps 748 mmHg 70%
    23:00 +12°C° 0.3 mm 1 mps 748 mmHg 74%

    Tomorrow, 27 April, Saturday

    Time Temperature Precipitation Wind Pressure Humidity
    00:00 +12°C° 0.3 mm 1 mps 747 mmHg 76%
    01:00 +12°C° 0.3 mm 1 mps 747 mmHg 79%
    02:00 +12°C° 0.3 mm 1 mps 747 mmHg 81%
    03:00 +12°C° 0.1 mm 1 mps 746 mmHg 82%
    04:00 +12°C° 0.1 mm 2 mps 746 mmHg 83%
    05:00 +12°C° 0.1 mm 2 mps 745 mmHg 84%
    06:00 +13°C° 0 mm 2 mps 745 mmHg 79%
    07:00 +14°C° 0 mm 2 mps 745 mmHg 73%
    08:00 +16°C° 0 mm 2 mps 745 mmHg 68%
    09:00 +17°C° 0.1 mm 2 mps 744 mmHg 61%
    10:00 +18°C° 0.1 mm 2 mps 744 mmHg 55%
    11:00 +20°C° 0.1 mm 2 mps 743 mmHg 48%
    12:00 +20°C° 0.1 mm 2 mps 743 mmHg 47%
    13:00 +20°C° 0.1 mm 2 mps 742 mmHg 45%
    14:00 +21°C° 0.1 mm 2 mps 742 mmHg 44%
    15:00 +20°C° 0.1 mm 2 mps 742 mmHg 49%
    16:00 +19°C° 0.1 mm 2 mps 741 mmHg 55%
    17:00 +17°C° 0.1 mm 3 mps 741 mmHg 61%
    18:00 +14°C° 0.6 mm 3 mps 741 mmHg 69%
    19:00 +13°C° 0.6 mm 3 mps 742 mmHg 78%
    20:00 +11°C° 0.6 mm 3 mps 742 mmHg 87%
    21:00 +10°C° 0.3 mm 4 mps 742 mmHg 84%
    22:00 +8°C° 0.3 mm 4 mps 743 mmHg 80%
    23:00 +6°C° 0.3 mm 5 mps 744 mmHg 77%

    Day after tomorrow, 28 April, Sunday

    Time Temperature Precipitation Wind Pressure Humidity
    00:00 +5°C° 0 mm 5 mps 744 mmHg 77%
    01:00 +2°C° 0 mm 5 mps 745 mmHg 77%
    02:00 0°C° 0 mm 5 mps 746 mmHg 77%
    03:00 0°C° 0 mm 5 mps 746 mmHg 75%
    04:00 -1°C° 0 mm 5 mps 747 mmHg 73%
    05:00 -2°C° 0 mm 5 mps 747 mmHg 71%
    06:00 -1°C° 0 mm 5 mps 748 mmHg 65%
    07:00 0°C° 0 mm 5 mps 748 mmHg 59%
    08:00 0°C° 0 mm 5 mps 749 mmHg 53%
    09:00 +1°C° 0 mm 5 mps 749 mmHg 49%
    10:00 +3°C° 0 mm 5 mps 750 mmHg 44%
    11:00 +5°C° 0 mm 4 mps 750 mmHg 40%
    12:00 +5°C° 0 mm 4 mps 750 mmHg 38%
    13:00 +6°C° 0 mm 4 mps 750 mmHg 37%
    14:00 +6°C° 0 mm 4 mps 750 mmHg 35%
    15:00 +6°C° 0 mm 4 mps 751 mmHg 36%
    16:00 +6°C° 0 mm 4 mps 751 mmHg 36%
    17:00 +5°C° 0 mm 4 mps 751 mmHg 36%
    18:00 +4°C° 0 mm 3 mps 752 mmHg 41%
    19:00 +2°C° 0 mm 3 mps 752 mmHg 47%
    20:00 +2°C° 0 mm 2 mps 753 mmHg 52%
    21:00 +1°C° 0 mm 2 mps 753 mmHg 54%
    22:00 +1°C° 0 mm 2 mps 753 mmHg 56%
    23:00 -1°C° 0 mm 2 mps 754 mmHg 59%

    29 April, Monday

    Time Temperature Precipitation Wind Pressure Humidity
    00:00 -2°C° 0 mm 2 mps 754 mmHg 61%
    01:00 -2°C° 0 mm 2 mps 754 mmHg 62%
    02:00 -3°C° 0 mm 2 mps 754 mmHg 64%
    03:00 -3°C° 0 mm 2 mps 755 mmHg 63%
    04:00 -2°C° 0 mm 2 mps 755 mmHg 61%
    05:00 -2°C° 0 mm 2 mps 755 mmHg 59%
    06:00 -1°C° 0 mm 2 mps 755 mmHg 52%
    07:00 +2°C° 0 mm 2 mps 755 mmHg 44%
    08:00 +4°C° 0 mm 2 mps 755 mmHg 37%
    09:00 +5°C° 0 mm 2 mps 755 mmHg 35%
    10:00 +6°C° 0 mm 2 mps 755 mmHg 33%
    11:00 +7°C° 0 mm 2 mps 755 mmHg 30%
    12:00 +8°C° 0 mm 2 mps 754 mmHg 30%
    13:00 +9°C° 0 mm 1 mps 754 mmHg 29%
    14:00 +10°C° 0 mm 1 mps 753 mmHg 28%
    15:00 +10°C° 0 mm 1 mps 753 mmHg 29%
    16:00 +9°C° 0 mm 1 mps 752 mmHg 30%
    17:00 +9°C° 0 mm 1 mps 752 mmHg 31%
    18:00 +7°C° 0 mm 1 mps 752 mmHg 37%
    19:00 +5°C° 0 mm 1 mps 752 mmHg 43%
    20:00 +3°C° 0 mm 1 mps 751 mmHg 50%
    21:00 +3°C° 0 mm 1 mps 751 mmHg 53%
    22:00 +3°C° 0 mm 1 mps 751 mmHg 55%
    23:00 +1°C° 0 mm 2 mps 751 mmHg 58%

    30 April, Tuesday

    Time Temperature Precipitation Wind Pressure Humidity
    00:00 +1°C° 0 mm 2 mps 751 mmHg 60%
    01:00 +1°C° 0 mm 2 mps 751 mmHg 61%
    02:00 +1°C° 0 mm 2 mps 750 mmHg 62%
    03:00 +1°C° 0 mm 2 mps 750 mmHg 62%
    04:00 +1°C° 0 mm 2 mps 750 mmHg 61%
    05:00 +1°C° 0 mm 2 mps 749 mmHg 61%
    06:00 +3°C° 0 mm 2 mps 749 mmHg 55%
    07:00 +5°C° 0 mm 2 mps 749 mmHg 49%
    08:00 +6°C° 0 mm 2 mps 748 mmHg 43%
    09:00 +8°C° 0 mm 2 mps 748 mmHg 39%
    10:00 +9°C° 0 mm 2 mps 747 mmHg 35%
    11:00 +10°C° 0 mm 3 mps 747 mmHg 32%
    12:00 +10°C° 0 mm 3 mps 746 mmHg 32%
    13:00 +12°C° 0 mm 2 mps 746 mmHg 32%
    14:00 +12°C° 0 mm 2 mps 746 mmHg 33%
    15:00 +11°C° 0 mm 3 mps 745 mmHg 37%
    16:00 +10°C° 0 mm 3 mps 745 mmHg 42%
    17:00 +10°C° 0 mm 3 mps 744 mmHg 46%
    18:00 +8°C° 0.1 mm 3 mps 744 mmHg 56%
    19:00 +7°C° 0.1 mm 3 mps 744 mmHg 66%
    20:00 +5°C° 0.1 mm 2 mps 744 mmHg 77%
    21:00 +5°C° 0.2 mm 2 mps 744 mmHg 80%
    22:00 +4°C° 0.2 mm 2 mps 744 mmHg 83%
    23:00 +4°C° 0.2 mm 2 mps 744 mmHg 87%

    1 May, Wednesday

    Time Temperature Precipitation Wind Pressure Humidity
    00:00 +3°C° 0.1 mm 2 mps 744 mmHg 86%
    01:00 +3°C° 0.1 mm 2 mps 744 mmHg 86%
    02:00 +3°C° 0.1 mm 2 mps 744 mmHg 86%
    03:00 +3°C° 0 mm 2 mps 744 mmHg 87%
    04:00 +2°C° 0 mm 2 mps 744 mmHg 87%
    05:00 +1°C° 0 mm 3 mps 744 mmHg 88%
    06:00 +3°C° 0 mm 2 mps 744 mmHg 81%
    07:00 +4°C° 0 mm 2 mps 744 mmHg 75%
    08:00 +5°C° 0 mm 2 mps 744 mmHg 69%
    09:00 +6°C° 0 mm 2 mps 744 mmHg 60%
    10:00 +7°C° 0 mm 2 mps 744 mmHg 52%
    11:00 +9°C° 0 mm 2 mps 744 mmHg 44%
    12:00 +11°C° 0 mm 1 mps 743 mmHg 41%
    13:00 +12°C° 0 mm 1 mps 743 mmHg 39%
    14:00 +12°C° 0 mm 1 mps 743 mmHg 36%
    15:00 +11°C° 0 mm 0 mps 742 mmHg 37%
    16:00 +10°C° 0 mm 0 mps 742 mmHg 37%
    17:00 +10°C° 0 mm 0 mps 741 mmHg 38%
    18:00 +9°C° 0 mm 1 mps 741 mmHg 45%
    19:00 +7°C° 0 mm 1 mps 741 mmHg 53%
    20:00 +6°C° 0 mm 1 mps 741 mmHg 61%
    21:00 +5°C° 0 mm 1 mps 740 mmHg 64%
    22:00 +4°C° 0 mm 1 mps 740 mmHg 68%
    23:00 +4°C° 0 mm 1 mps 740 mmHg 71%
    Show more